sat.trackr.live / text

‹ back to catalog

HULIANWANG DIGUI-20

NORAD 63687 · 2025-086A

PAYLOAD ACTIVE UNKNOWN

§ Identity

Operator
Country
PRC
Launch date
2025-04-28
Launch site
WSC
Launch vehicle
Mass (kg)
RCS (m²)

External: N2YO · Heavens-Above · Gunter

§ Orbital elements

Epoch: 2026-09-21T21:03:37.480032Z

Period
108.73 min
Inclination
86.4981°
Eccentricity
0.0001777
Mean motion
13.24412538 rev/d
Perigee alt
1,166.6 km
Apogee alt
1,169.3 km
Semi-major
7,546.0 km
B*
-4.1133e-4
RAAN
280.5562°
Arg perigee
78.7698°
Mean anomaly
281.3636°
Rev number
6,767

§ Raw data

HULIANWANG DIGUI-201 63687U 25086A   26264.87751713 -.00000162  00000+0 -41133-3 0  99952 63687  86.4981 280.5562 0001777  78.7698 281.3636 13.24412538 67671

JSON: /api/v1/satellites/63687 · /tle

For live sub-satellite position, see the globe view (requires WebGL).

§ Visibility from observer

Set your observer location to see the next 7 days of passes ≥ 10°. The values pass through the URL so the page stays shareable.

No JS? Fill the form by hand. The geolocation button needs JavaScript.